Location: Klickitat County Star Party
(45.8642°N, 120.6771°W)
Time: 13:50:13
(UTC-08:00)

CUTE 1.7 + AOD 2 - Visible Passes

Search period start: 18 November 2019 00:00
Search period end: 28 November 2019 00:00
Orbit: 593 x 613 km, 97.6° (Epoch: 17 November)

Date Brightness Start Highest point End Pass type
(mag) Time Alt. Az. Time Alt. Az. Time Alt. Az.
18 Nov ? 04:34:20 10° NE 04:37:11 18° E 04:40:01 10° SE visible
18 Nov ? 06:09:13 10° N 06:13:13 45° WNW 06:17:12 10° SW visible
18 Nov ? 17:03:29 10° S 17:07:34 48° W 17:11:40 10° NNW visible
19 Nov ? 04:45:56 10° NE 04:49:18 23° E 04:52:40 10° SSE visible
19 Nov ? 06:21:23 10° N 06:25:11 34° WNW 06:28:58 10° SW visible
19 Nov ? 17:15:45 10° SSW 17:19:38 36° W 17:23:33 10° NNW visible
20 Nov ? 04:57:39 10° NNE 05:01:24 30° E 05:05:07 10° SSE visible
20 Nov ? 06:33:36 10° N 06:37:06 26° WNW 06:40:35 10° WSW visible
20 Nov ? 17:28:07 10° SSW 17:31:43 27° W 17:35:20 10° NW visible
21 Nov ? 05:09:29 10° NNE 05:13:29 41° E 05:17:26 10° S visible
21 Nov ? 17:40:39 10° SW 17:43:49 20° W 17:47:00 10° NW visible
22 Nov ? 05:21:23 10° NNE 05:25:32 56° E 05:29:39 10° S visible
22 Nov ? 17:53:25 10° SW 17:55:57 15° W 17:58:29 10° NW visible
23 Nov ? 05:33:21 10° NNE 05:37:33 76° ESE 05:41:45 10° S visible
23 Nov ? 18:06:39 10° WSW 18:08:06 11° W 18:09:34 10° WNW visible
24 Nov ? 05:45:21 10° N 05:49:34 80° WNW 05:53:46 10° SSW visible
25 Nov ? 04:23:12 10° ENE 04:25:23 14° E 04:27:31 10° ESE visible
25 Nov ? 05:57:25 10° N 06:01:33 59° WNW 06:05:41 10° SSW visible
25 Nov ? 16:51:41 10° S 16:55:51 64° W 17:00:01 10° NNW visible
26 Nov ? 04:34:34 10° NE 04:37:31 18° E 04:40:26 10° SE visible
26 Nov ? 06:09:31 10° N 06:13:32 44° WNW 06:17:31 10° SW visible
26 Nov ? 17:03:50 10° S 17:07:53 46° W 17:11:57 10° NNW visible
27 Nov ? 04:46:11 10° NE 04:49:37 24° E 04:53:02 10° SSE visible
27 Nov ? 06:21:42 10° N 06:25:28 33° WNW 06:29:15 10° SW visible
27 Nov ? 17:16:06 10° SSW 17:19:56 34° W 17:23:48 10° NNW visible
